Gainesville, GA

3:13 PM EDT on October 17, 2018 (GMT -0400)
Gilmer Memorial

Weather History for KGVL - October, 2018

Change the Weather History Date:

Friday, October 12, 2018

  Actual Average Record
Temperature  
Mean Temperature 63 °F 63 °F  
Max Temperature 75 °F 73 °F 88 °F (1931)
Min Temperature 51 °F 53 °F 34 °F (1941)
Degree Days  
Heating Degree Days 2 4  
Month to date heating degree days 2 33  
Since 1 July heating degree days 2 46  
Cooling Degree Days 0 1  
Month to date cooling degree days 122 25  
Year to date cooling degree days 2025 1566  
Growing Degree Days 13 (Base 50)    
Moisture  
Dew Point 47 °F    
Average Humidity 58    
Maximum Humidity 89    
Minimum Humidity 27    
Precipitation  
Precipitation 0.00 in 0.12 in 1.27 in (1990)
Month to date precipitation 3.23 1.87  
Year to date precipitation 47.16 42.80  
Snow  
Snow 0.00 in - - ()
Month to date snowfall 0.0  
Since 1 July snowfall 0.0  
Since 1 September snowfall 0.0  
Snow Depth 0.00 in    
Sea Level Pressure  
Sea Level Pressure 29.88 in    
Wind  
Wind Speed 8 mph (WNW)    
Max Wind Speed 14 mph    
Max Gust Speed 18 mph    
Visibility 10 miles    
Events      
T = Trace of Precipitation, MM = Missing Value Source: NWS Daily Summary

Daily Weather History Graph

Daily Weather History Graph

Search for Another Location

Airport or City:

Astronomy

Oct. 12, 2018 Rise Set
Actual Time 7:38 AM EDT 7:04 PM EDT
Civil Twilight 7:13 AM EDT 7:29 PM EDT
Nautical Twilight 6:43 AM EDT 7:58 PM EDT
Astronomical Twilight 6:14 AM EDT 8:28 PM EDT
Moon 11:04 AM EDT (10/12) 9:48 PM EDT (10/12)
Length of Visible Light 12h 16m
Length of Day
11h 26m
Waxing Crescent, 14% of the Moon is Illuminated
Oct 12
Waxing Crescent
Oct 16
First Quarter
Oct 24
Full
Oct 31
Last Quarter
Nov 7
New

Hourly Weather History & Observations

Time (EDT) Temp. Dew Point Humidity Pressure Visibility Wind Dir Wind Speed Gust Speed Precip Events Conditions
12:53 AM 57.0 °F 52.0 °F 83% 29.88 in 10.0 mi WNW 9.2 mph - N/A   Clear
1:53 AM 55.9 °F 51.1 °F 84% 29.87 in 10.0 mi WNW 4.6 mph - N/A   Clear
2:53 AM 55.9 °F 51.1 °F 84% 29.87 in 10.0 mi WNW 8.1 mph - N/A   Clear
3:53 AM 55.0 °F 50.0 °F 83% 29.86 in 10.0 mi WNW 9.2 mph - N/A   Clear
4:53 AM 53.1 °F 50.0 °F 89% 29.87 in 10.0 mi WNW 10.4 mph - N/A   Clear
5:53 AM 53.1 °F 48.9 °F 86% 29.86 in 10.0 mi NW 8.1 mph - N/A   Clear
6:53 AM 52.0 °F 48.0 °F 86% 29.88 in 10.0 mi WNW 8.1 mph - N/A   Clear
7:53 AM 51.1 °F 48.0 °F 89% 29.89 in 10.0 mi West 6.9 mph - N/A   Clear
8:53 AM 54.0 °F 48.0 °F 80% 29.90 in 10.0 mi WNW 5.8 mph - N/A   Clear
9:53 AM 57.9 °F 46.0 °F 65% 29.91 in 10.0 mi NW 8.1 mph - N/A   Clear
10:53 AM 62.1 °F 46.0 °F 56% 29.92 in 10.0 mi WNW 9.2 mph - N/A   Clear
11:53 AM 64.9 °F 45.0 °F 48% 29.92 in 10.0 mi WNW 8.1 mph - N/A   Clear
12:53 PM 69.1 °F 44.1 °F 40% 29.90 in 10.0 mi West 8.1 mph - N/A   Clear
1:53 PM 72.0 °F 42.1 °F 34% 29.87 in 10.0 mi WNW 9.2 mph - N/A   Clear
2:53 PM 75.0 °F 39.9 °F 28% 29.85 in 10.0 mi West 10.4 mph - N/A   Clear
3:53 PM 73.9 °F 39.9 °F 29% 29.83 in 10.0 mi WNW 9.2 mph - N/A   Clear
4:53 PM 73.0 °F 37.0 °F 27% 29.83 in 10.0 mi West 10.4 mph - N/A   Clear
5:53 PM 72.0 °F 42.1 °F 34% 29.84 in 10.0 mi WNW 10.4 mph - N/A   Clear
6:53 PM 66.0 °F 48.0 °F 52% 29.86 in 10.0 mi West 10.4 mph - N/A   Clear
7:53 PM 62.1 °F 48.0 °F 60% 29.86 in 10.0 mi West 9.2 mph - N/A   Clear
8:53 PM 60.1 °F 48.0 °F 64% 29.88 in 10.0 mi West 8.1 mph - N/A   Clear
9:53 PM 57.9 °F 48.9 °F 72% 29.88 in 10.0 mi WNW 8.1 mph - N/A   Clear
10:53 PM 57.0 °F 48.9 °F 74% 29.89 in 10.0 mi WNW 9.2 mph - N/A   Clear
11:53 PM 57.0 °F 46.9 °F 69% 29.89 in 10.0 mi West 6.9 mph - N/A   Clear